GW4499 Weather Reports


Display with metric or nautical units.
time (UTC)temp
F
wind
direction
speed
MPH
gust
MPH
rain 1hr
in
rain 24hr
in
rain mn
in
humidity
%
barometer
mb
20260906212518 89 0.0 3.0 0.00 0.00 0.00 32 1014.8
20260906211518 90 135 1.0 4.0 0.00 0.00 0.00 32 1015.3
20260906210519 90 0.0 3.0 0.00 0.00 0.00 32 1015.4
20260906205520 90 158 1.0 4.0 0.00 0.00 0.00 33 1015.5
20260906204520 91 0.0 2.0 0.00 0.00 0.00 35 1015.9
20260906203520 90 0.0 2.0 0.00 0.00 0.00 34 1016.0
20260906202521 90 135 1.0 3.0 0.00 0.00 0.00 34 1016.1
20260906201541 90 158 1.0 2.0 0.00 0.00 0.00 36 1016.2
20260906200521 90 0.0 0.0 0.00 0.00 0.00 37 1016.4
20260906195521 89 135 1.0 4.0 0.00 0.00 0.00 39 1016.3
20260906194520 90 0.0 2.0 0.00 0.00 0.00 38 1016.7
20260906193520 88 0.0 2.0 0.00 0.00 0.00 38 1016.4
20260906192520 89 180 1.0 4.0 0.00 0.00 0.00 38 1016.5
20260906191520 86 0.0 2.0 0.00 0.00 0.00 43 1016.4
20260906190540 86 135 1.0 3.0 0.00 0.00 0.00 42 1016.5
20260906185540 86 0.0 2.0 0.00 0.00 0.00 45 1016.6
20260906184520 85 135 1.0 3.0 0.00 0.00 0.00 46 1016.9
20260906183540 84 0.0 2.0 0.00 0.00 0.00 45 1016.9
20260906182520 82 113 1.0 3.0 0.00 0.00 0.00 49 1017.2
20260906181520 82 0.0 2.0 0.00 0.00 0.00 50 1017.4
20260906180520 80 0.0 2.0 0.00 0.00 0.00 49 1017.1
20260906175520 81 158 1.0 3.0 0.00 0.00 0.00 49 1017.4
20260906174520 82 0.0 2.0 0.00 0.00 0.00 50 1017.8
20260906173520 81 180 1.0 3.0 0.00 0.00 0.00 51 1018.1
20260906172520 82 0.0 3.0 0.00 0.00 0.00 50 1018.2
20260906171520 82 158 1.0 3.0 0.00 0.00 0.00 52 1018.6
20260906170540 81 0.0 2.0 0.00 0.00 0.00 53 1018.7
20260906165520 79 203 1.0 2.0 0.00 0.00 0.00 55 1018.4
20260906164520 79 0.0 2.0 0.00 0.00 0.00 54 1018.3
20260906163520 78 158 1.0 2.0 0.00 0.00 0.00 57 1018.3
20260906162521 78 0.0 0.0 0.00 0.00 0.00 56 1018.2
20260906161520 76 0.0 0.0 0.00 0.00 0.00 59 1018.0
20260906160520 74 315 1.0 2.0 0.00 0.00 0.00 61 1018.0
20260906155540 75 0.0 2.0 0.00 0.00 0.00 60 1018.5
20260906154520 75 0.0 0.0 0.00 0.00 0.00 61 1018.6
20260906153520 75 0.0 0.0 0.00 0.00 0.00 62 1018.7
20260906152520 73 0.0 1.0 0.00 0.00 0.00 63 1018.8
20260906151520 73 0.0 0.0 0.00 0.00 0.00 64 1019.0
20260906150540 72 0.0 0.0 0.00 0.00 0.00 65 1019.0
20260906145520 70 0.0 0.0 0.00 0.00 0.00 68 1018.8
20260906144520 69 0.0 0.0 0.00 0.00 0.00 70 1018.4
20260906143520 66 0.0 0.0 0.00 0.00 0.00 76 1018.1
20260906142520 65 0.0 1.0 0.00 0.00 0.00 76 1018.0
20260906141540 65 0.0 1.0 0.00 0.00 0.00 76 1018.0
20260906140520 64 0.0 0.0 0.00 0.00 0.00 77 1018.2
20260906135520 63 0.0 0.0 0.00 0.00 0.00 77 1018.1
20260906134540 62 0.0 1.0 0.00 0.00 0.00 78 1017.8
20260906133520 61 0.0 0.0 0.00 0.00 0.00 80 1017.8
20260906132540 61 0.0 0.0 0.00 0.00 0.00 81 1017.5
20260906131540 61 0.0 0.0 0.00 0.00 0.00 80 1017.5
20260906130520 61 0.0 0.0 0.00 0.00 0.00 79 1017.8
20260906125540 61 0.0 0.0 0.00 0.00 0.00 79 1017.8
20260906124520 62 0.0 0.0 0.00 0.00 0.00 78 1018.0
20260906123520 62 0.0 0.0 0.00 0.00 0.00 75 1018.2
20260906122520 62 0.0 0.0 0.00 0.00 0.00 76 1018.3
20260906121520 62 0.0 0.0 0.00 0.00 0.00 79 1018.3
20260906120520 62 0.0 0.0 0.00 0.00 0.00 79 1018.6
20260906115600 63 0.0 0.0 0.00 0.00 0.00 78 1018.6
20260906114520 63 0.0 0.0 0.00 0.00 0.00 77 1018.5
20260906113539 62 0.0 0.0 0.00 0.00 0.00 81 1018.8
20260906112600 63 0.0 0.0 0.00 0.00 0.00 81 1018.8
20260906111520 63 0.0 0.0 0.00 0.00 0.00 81 1018.8
20260906110520 63 0.0 0.0 0.00 0.00 0.00 80 1019.1
20260906105519 64 0.0 0.0 0.00 0.00 0.00 80 1019.4
20260906104520 64 0.0 0.0 0.00 0.00 0.00 78 1019.3
20260906103519 64 0.0 0.0 0.00 0.00 0.00 76 1019.3
20260906102519 64 0.0 1.0 0.00 0.00 0.00 72 1019.2
20260906101540 64 0.0 0.0 0.00 0.00 0.00 72 1019.4
20260906100520 64 0.0 0.0 0.00 0.00 0.00 71 1019.7
20260906095519 64 0.0 0.0 0.00 0.00 0.00 71 1019.5
20260906094519 65 0.0 0.0 0.00 0.00 0.00 70 1019.4
20260906093559 65 0.0 0.0 0.00 0.00 0.00 69 1019.6
20260906092519 66 0.0 0.0 0.00 0.00 0.00 68 1019.8
20260906091520 66 0.0 0.0 0.00 0.00 0.00 68 1019.7
20260906090520 66 0.0 0.0 0.00 0.00 0.00 67 1019.5
20260906085519 66 0.0 0.0 0.00 0.00 0.00 66 1019.4
20260906084519 67 0.0 0.0 0.00 0.00 0.00 65 1019.8
20260906083519 67 0.0 0.0 0.00 0.00 0.00 64 1019.5
20260906082519 67 0.0 0.0 0.00 0.00 0.00 63 1019.6
20260906081519 68 0.0 0.0 0.00 0.00 0.00 62 1019.7
20260906080519 68 0.0 0.0 0.00 0.00 0.00 62 1020.0
20260906075520 68 0.0 0.0 0.00 0.00 0.00 63 1020.0
20260906074519 68 0.0 0.0 0.00 0.00 0.00 60 1019.8
20260906073519 68 0.0 0.0 0.00 0.00 0.00 59 1019.6
20260906072520 68 0.0 1.0 0.00 0.00 0.00 58 1019.5
20260906071519 68 315 1.0 2.0 0.00 0.00 0.00 56 1019.5
20260906070519 68 0.0 0.0 0.00 0.00 0.00 57 1019.8
20260906065519 68 0.0 0.0 0.00 0.00 0.00 60 1019.9
20260906064519 68 0.0 0.0 0.00 0.00 0.00 58 1019.8
20260906063519 68 0.0 0.0 0.00 0.00 0.00 58 1019.7
20260906062519 69 0.0 0.0 0.00 0.00 0.00 57 1019.6
20260906061519 69 0.0 0.0 0.00 0.00 0.00 56 1019.7
20260906060520 70 0.0 0.0 0.00 0.00 0.00 55 1019.3
20260906055519 70 0.0 1.0 0.00 0.00 0.00 54 1019.1
20260906054539 70 0.0 0.0 0.00 0.00 0.00 52 1019.2
20260906053539 70 0.0 0.0 0.00 0.00 0.00 51 1019.5
20260906052519 70 0.0 0.0 0.00 0.00 0.00 50 1019.6
20260906051519 70 0.0 1.0 0.00 0.00 0.00 49 1019.4
20260906050519 71 0.0 1.0 0.00 0.00 0.00 50 1018.8
20260906045519 70 0.0 1.0 0.00 0.00 0.00 50 1018.2
20260906044519 71 0.0 0.0 0.00 0.00 0.00 50 1018.2
20260906043520 72 0.0 0.0 0.00 0.00 0.00 48 1017.8
20260906042519 72 0.0 0.0 0.00 0.00 0.00 48 1017.8
20260906041519 72 0.0 0.0 0.00 0.00 0.00 48 1017.6
20260906040519 73 0.0 0.0 0.00 0.00 0.00 47 1017.1
20260906035519 74 0.0 1.0 0.00 0.00 0.00 46 1017.1
20260906034519 75 0.0 1.0 0.00 0.00 0.00 43 1017.5
20260906033539 75 0.0 0.0 0.00 0.00 0.00 42 1016.5
20260906032519 76 0.0 1.0 0.00 0.00 0.00 41 1016.3
20260906031519 76 0.0 0.0 0.00 0.00 0.00 40 1016.3
20260906030519 77 0.0 0.0 0.00 0.00 0.00 38 1015.1
20260906025519 77 0.0 0.0 0.00 0.00 0.00 39 1015.1
20260906024519 78 0.0 1.0 0.00 0.00 0.00 38 1014.9
20260906023519 78 0.0 0.0 0.00 0.00 0.00 38 1013.9
20260906022519 78 0.0 0.0 0.00 0.00 0.00 37 1013.9
20260906021519 79 0.0 0.0 0.00 0.00 0.00 36 1013.9
20260906020519 80 0.0 0.0 0.00 0.00 0.00 34 1013.0
20260906015519 80 0.0 1.0 0.00 0.00 0.00 34 1013.3
20260906014519 81 0.0 1.0 0.00 0.00 0.00 33 1013.1
20260906013519 81 0.0 1.0 0.00 0.00 0.00 32 1012.8
20260906012519 81 0.0 0.0 0.00 0.00 0.00 31 1012.7
20260906011519 82 0.0 2.0 0.00 0.00 0.00 31 1013.1
20260906010559 82 338 2.0 6.0 0.00 0.00 0.00 31 1013.3
20260906005519 82 0.0 3.0 0.00 0.00 0.00 31 1013.2
20260906004519 83 315 1.0 3.0 0.00 0.00 0.00 30 1013.2
20260906003519 84 293 1.0 2.0 0.00 0.00 0.00 29 1013.5
20260906002519 85 315 1.0 5.0 0.00 0.00 0.00 29 1013.3
20260906001519 86 293 2.0 7.0 0.00 0.00 0.00 27 1013.6
20260906000519 87 315 2.0 6.0 0.00 0.00 0.00 26 1014.0
20260905235519 88 315 1.0 3.0 0.00 0.00 0.00 25 1013.9
20260905234519 88 0.0 1.0 0.00 0.00 0.00 31 1014.4
20260905233519 88 0.0 0.0 0.00 0.00 0.00 27 1014.1
20260905232519 89 0.0 0.0 0.00 0.00 0.00 26 1014.3
20260905231519 90 0.0 0.0 0.00 0.00 0.00 26 1014.1
20260905230519 90 0.0 0.0 0.00 0.00 0.00 23 1013.8
20260905225518 90 0.0 3.0 0.00 0.00 0.00 24 1013.8
20260905224519 91 0.0 4.0 0.00 0.00 0.00 21 1014.0
20260905223518 92 0.0 2.0 0.00 0.00 0.00 21 1014.3
20260905222518 93 0.0 2.0 0.00 0.00 0.00 20 1014.3
20260905221518 93 0.0 2.0 0.00 0.00 0.00 20 1014.3
20260905220518 93 158 1.0 5.0 0.00 0.00 0.00 20 1014.7
20260905215519 94 135 1.0 3.0 0.00 0.00 0.00 20 1015.1
20260905214539 95 203 1.0 4.0 0.00 0.00 0.00 21 1015.3
20260905213518 95 248 1.0 4.0 0.00 0.00 0.00 20 1015.4